Regional Weather Roundup
Issued by NWS

Home | Current Version | Previous Version | Graphics & Text | Print | Product List | Glossary On
Versions: 1 2 3 4 5 6 7 8 9 10 11 12 13 14 15 16 17 18 19 20 21 22 23 24 25 26 27 28 29 30 31 32 33 34 35 36 37 38 39 40 41 42 43 44 45 46 47 48 49 50
000
ASUS43 KBIS 260159
RWRND

NORTH DAKOTA REGIONAL WEATHER ROUNDUP
NATIONAL WEATHER SERVICE BISMARCK ND
800 PM CST THU DEC 25 2014

NOTE: "FAIR" INDICATES FEW OR NO CLOUDS BELOW 12,000 FEET WITH NO
SIGNIFICANT WEATHER AND/OR OBSTRUCTIONS TO VISIBILITY.


NDZ001>003-009>011-017-260300-
NORTHWEST NORTH DAKOTA

CITY           SKY/WX    TMP DP  RH WIND       PRES   REMARKS
WILLISTON      CLOUDY    21  15  78 NW13      30.03R WCI   9
MINOT          CLOUDY    23  17  78 NW9       29.97R WCI  13
$$

NDZ018>021-031>035-040>046-260300-
SOUTHWEST NORTH DAKOTA

CITY           SKY/WX    TMP DP  RH WIND       PRES   REMARKS
BISMARCK       CLOUDY    26  20  77 NW13      29.97R WCI  15
GARRISON         N/A     24  19  81 N13       29.95R WCI  12
HETTINGER ARPT CLOUDY    22  17  81 NW12      29.96R WCI  10
$$

NDZ004>008-012>016-024-026-027-054-260300-
NORTHEAST NORTH DAKOTA

CITY           SKY/WX    TMP DP  RH WIND       PRES   REMARKS
GRAND FORKS    CLOUDY    26  21  81 N17       29.94R WCI  13
DEVILS LAKE    CLOUDY    25  21  86 N6        29.93R WCI  18
$$

NDZ022-023-025-028>030-036>039-047>053-260300-
SOUTHEAST NORTH DAKOTA

CITY           SKY/WX    TMP DP  RH WIND       PRES   REMARKS
FARGO          CLOUDY    28  22  78 N14       29.93R WCI  17
$$




USA.gov is the U.S. government's official web portal to all federal, state and local government web resources and services.